Torna al catalogo

CZ-6A DEB

AttivoPO
NORAD 60852·DEBRIS·🇨🇳 China

Lanciato Aug 6, 2024 da Taiyuan Satellite Launch Center

Loading…

Prossimi Passaggi (prossime 24 ore)

TLE

AggiornatoSource: Space-Track

Epoca: Sep 14, 2026, 14:16 UTC

1 60852U 24140JF  26257.59467572  .00000191  00000-0  13804-3 0  9999
2 60852  88.3966 223.2185 0389950  95.0998 269.4778 13.60682340103460

Traccia CZ-6A DEB in tempo reale con AllMySat

Download on the App Store